Hourly Data Report for July 18, 2021

WRIGLEY A
NORTHWEST TERRITORIES
Current Station Operator: NAVCAN

63°12'35.000" N
123°26'12.000" W
149.70 m
2204005
YWY

Download Data

Hourly Data (July 2021)
Hourly Data Report for July 18, 2021
TIME
LST
Temp Definition
°C
Dew Point Definition
°C
Rel Hum Definition
%
Precip. Amount Definition
mm

Wind Dir Definition
10's deg

Wind Spd Definition
km/h
Visibility Definition
km
Stn Press Definition
kPa
Hmdx Definition


Wind Chill Definition


Weather Definition


00:00 15.3 8.4 63 LegendMM 12 10 LegendMM 100.22     LegendNANA
01:00 14.6 8.4 66 LegendMM 12 10 LegendMM 100.23     LegendNANA
02:00 13.9 8.0 67 LegendMM 12 12 LegendMM 100.21     LegendNANA
03:00 12.9 7.9 71 LegendMM 13 16 LegendMM 100.21     LegendNANA
04:00 12.1 7.7 74 LegendMM 15 16 LegendMM 100.21     LegendNANA
05:00 11.3 8.2 81 LegendMM 15 14 LegendMM 100.20     LegendNANA
06:00 11.4 8.5 82 LegendMM 14 15 LegendMM 100.19     LegendNANA
07:00 12.1 8.7 79 LegendMM 14 17 LegendMM 100.17     LegendNANA
08:00 13.4 8.8 74 LegendMM 15 24 LegendMM 100.15     LegendNANA
09:00 14.2 9.0 71 LegendMM 14 21 LegendMM 100.13     LegendNANA
10:00 15.8 9.6 66 LegendMM 15 21 LegendMM 100.11     LegendNANA
11:00 17.5 9.5 59 LegendMM 14 23 LegendMM 100.08     LegendNANA
12:00 19.1 9.5 53 LegendMM 14 25 LegendMM 100.05     LegendNANA
13:00 20.3 10.1 52 LegendMM 14 25 LegendMM 100.02     LegendNANA
14:00 21.7 10.2 48 LegendMM 15 19 LegendMM 99.99     LegendNANA
15:00 22.5 10.1 45 LegendMM 15 22 LegendMM 99.97     LegendNANA
16:00 23.0 8.7 40 LegendMM 14 18 LegendMM 99.95     LegendNANA
17:00 23.7 7.7 35 LegendMM 15 17 LegendMM 99.93     LegendNANA
18:00 23.6 6.7 33 LegendMM 14 18 LegendMM 99.92     LegendNANA
19:00 23.1 8.4 39 LegendMM 14 17 LegendMM 99.91     LegendNANA
20:00 22.4 8.9 42 LegendMM 14 13 LegendMM 99.91     LegendNANA
21:00 21.3 9.1 45 LegendMM 14 14 LegendMM 99.93     LegendNANA
22:00 19.6 9.6 52 LegendMM 12 6 LegendMM 99.96     LegendNANA
23:00 18.9 8.6 51 LegendMM 12 10 LegendMM 99.99     LegendNANA

Notes on Data Quality.

Legend

  • E = Estimated
  • M = Missing
  • NA = Not Available*
  • [empty] = Indicates an unobserved value
Date modified: